VOZ820 YSSY-YMML

Flight info

Callsign VOZ820
Flight time N/A
Altitude 38000
Route MARUB7 WOL H65 LEECE Q29 BOOIN BOOIN1V
Aircraft B738/M-SDE2E3FGHIRWXY/LB1

Departure

Time 2026-04-30 22:46
Airport Sydney Kingsford Smith International Airport (YSSY)

Arrival

Time N/A
Airport Melbourne Airport (YMML)
Time Latitude Longitude Altitude Speed Heading
2026-04-30 22:10 -33.93478 151.18029 29 ft 0 kts 282°
2026-04-30 22:34 -33.93480 151.18040 29 ft 4 kts 279°
2026-04-30 22:35 -33.93479 151.18079 29 ft 4 kts 223°
2026-04-30 22:36 -33.93549 151.18064 29 ft 0 kts 190°
2026-04-30 22:38 -33.93585 151.18055 29 ft 8 kts 191°
2026-04-30 22:38 -33.93773 151.18045 29 ft 18 kts 229°
2026-04-30 22:39 -33.93813 151.17887 29 ft 22 kts 253°
2026-04-30 22:39 -33.94167 151.17847 29 ft 23 kts 168°
2026-04-30 22:40 -33.94563 151.17892 29 ft 22 kts 168°
2026-04-30 22:41 -33.95015 151.18009 29 ft 24 kts 168°
2026-04-30 22:41 -33.95065 151.18305 29 ft 23 kts 78°
2026-04-30 22:42 -33.95483 151.18761 29 ft 26 kts 168°
2026-04-30 22:43 -33.95852 151.18858 29 ft 28 kts 168°
2026-04-30 22:43 -33.96252 151.18961 29 ft 30 kts 168°
2026-04-30 22:44 -33.96633 151.19060 29 ft 26 kts 168°
2026-04-30 22:45 -33.97103 151.19337 25 ft 23 kts 77°
2026-04-30 22:45 -33.96661 151.19268 23 ft 89 kts 347°
2026-04-30 22:46 -33.94771 151.18837 768 ft 145 kts 349°
2026-04-30 22:47 -33.93735 151.22982 3045 ft 203 kts 110°
2026-04-30 22:47 -33.93810 151.26714 3676 ft 250 kts 86°
2026-04-30 22:48 -33.93670 151.30977 5199 ft 259 kts 86°
2026-04-30 22:49 -33.93477 151.37607 7597 ft 270 kts 86°
2026-04-30 22:49 -33.93272 151.44593 9936 ft 287 kts 86°
2026-04-30 22:50 -33.95621 151.53370 13164 ft 304 kts 150°
2026-04-30 22:51 -34.00010 151.53660 13824 ft 353 kts 203°
2026-04-30 22:51 -34.03924 151.49875 15094 ft 367 kts 227°
2026-04-30 22:52 -34.05625 151.47562 15882 ft 370 kts 229°
2026-04-30 22:52 -34.09011 151.42816 17459 ft 376 kts 229°
2026-04-30 22:53 -34.12474 151.38036 18955 ft 382 kts 227°
2026-04-30 22:53 -34.16053 151.33169 20144 ft 393 kts 228°
2026-04-30 22:53 -34.17886 151.30690 20697 ft 399 kts 228°
2026-04-30 22:54 -34.21618 151.25644 21899 ft 407 kts 228°
2026-04-30 22:55 -34.27355 151.17877 23607 ft 419 kts 229°
2026-04-30 22:55 -34.31222 151.12632 25179 ft 409 kts 229°
2026-04-30 22:56 -34.35062 151.07414 25710 ft 429 kts 229°
2026-04-30 22:56 -34.41107 150.99186 26979 ft 440 kts 229°
2026-04-30 22:57 -34.45196 150.93608 27844 ft 446 kts 229°
2026-04-30 22:57 -34.49337 150.87950 28662 ft 451 kts 229°
2026-04-30 22:58 -34.53526 150.82219 29476 ft 456 kts 229°
2026-04-30 22:59 -34.59594 150.73202 30547 ft 465 kts 235°
2026-04-30 22:59 -34.65257 150.63495 31481 ft 470 kts 235°